sat.trackr.live / text

‹ back to catalog

EMISAT

NORAD 44078 · 2019-018A

PAYLOAD ACTIVE UNKNOWN

§ Identity

Operator
Country
IND
Launch date
2019-04-01
Launch site
SRILR
Launch vehicle
Mass (kg)
RCS (m²)

External: N2YO · Heavens-Above · Gunter

§ Orbital elements

Epoch: 2026-09-20T03:59:43.752768Z

Period
99.75 min
Inclination
98.4550°
Eccentricity
0.0017229
Mean motion
14.43669745 rev/d
Perigee alt
734.1 km
Apogee alt
758.7 km
Semi-major
7,124.5 km
B*
2.7900e-5
RAAN
321.3957°
Arg perigee
293.6626°
Mean anomaly
66.2756°
Rev number
39,376

§ Raw data

EMISAT1 44078U 19018A   26263.16647862  .00000051  00000+0  27900-4 0  99982 44078  98.4550 321.3957 0017229 293.6626  66.2756 14.43669745393760

JSON: /api/v1/satellites/44078 · /tle

For live sub-satellite position, see the globe view (requires WebGL).

§ Visibility from observer

Set your observer location to see the next 7 days of passes ≥ 10°. The values pass through the URL so the page stays shareable.

No JS? Fill the form by hand. The geolocation button needs JavaScript.

§ Radio — SatNOGS DB

ModeDescriptionDownlinkUplink
FM S-band telemetry 2.255 GHz

1 transmitter · refreshed weekly from db.satnogs.org